Tracking 19832 objects as of 25-Aug-2019
HD Live streaming from Space Station
objects crossing your sky now

COSMOS 951

Track COSMOS 951 now!
10-day predictions
COSMOS 951 is classified as:


NORAD ID: 10352
Int'l Code: 1977-087A
Perigee: 965.9 km
Apogee: 1,018.1 km
Inclination: 83.0 °
Period: 104.8 minutes
Semi major axis: 7362 km
RCS: 4.4489 m2 (large)
Launch date: September 13, 1977
Source: Commonwealth of Independent States (former USSR) (CIS)
Launch site: PLESETSK MISSILE AND SPACE COMPLEX (PKMTR)
aabbcc
Your satellite tracking list
Your tracking list is empty




NASA's NSSDC Master Catalog

Two Line Element Set (TLE):
1 10352U 77087A   19236.93595803 +.00000043 +00000-0 +29092-4 0  9996
2 10352 082.9695 206.0814 0035458 108.2811 304.5470 13.74111801102743
Source of the keplerian elements: AFSPC